Погода в Сан-Педро-дель-Икуамандийю

Парагвай     24°05′08″S   57°04′29″W
темп.,
°C
ветер,
м/с
пор.,
м/с
влажн.,
%
обл.,
%
осадки,
мм/ч
давл.,
гПа
погр.,
м
1 марта, пн
пн100:00+25вюв286615 0.0 1008246
03:00+23в24768 0.0 1007102
06:00+21в12850 0.0 100775
09:00+26в24670 0.0 1009381
12:00+35всв22390 0.0 10091725
15:00+34в224028 0.0 10051915
18:00+33вюв244473 0.0 1004954
21:00+27в386663 0.2 1006320
2 марта, вт
вт200:00+25всв3107933 0.0 1008398
03:00+23св2108517 0.0 1007401
06:00+22всв24930 0.0 1008129
09:00+27св25670 0.0 1010549
12:00+35с24381 0.0 10091964
15:00+35ссв123847 0.0 10062031
18:00+34в124060 0.0 10051304
21:00+24в278446 0.9 1007130
3 марта, ср
ср300:00+24всв288618 0.0 1010200
03:00+23всв279228 0.0 1009215
06:00+22всв25950 0.0 1010149
09:00+27ссв27750 0.8 1011482
12:00+35ссз23400 0.0 10101776
15:00+37с333617 0.0 10082247
18:00+35ссв224026 0.0 10051742
21:00+23в249537 8.2 1008102
4 марта, чт
чт400:00+23всв2597100 1.8 1010130
03:00+23ссв3996100 2.8 1009301
06:00+22ссв1697100 0.0 1009278
09:00+26ссв3880100 0.0 1011544
12:00+29ссз357880 2.8 1010677
15:00+29сз147989 9.3 1008597
18:00+26ю1188100 2.3 100665
21:00+24ююв1292100 3.6 100824
5 марта, пт
пт500:00+23юз1197100 2.6 100823
03:00+22ююв1198100 3.7 100634
06:00+22св0197100 4.1 100624
09:00+24з379387 4.7 1008412
12:00+26з258767 2.4 1007710
15:00+30сз246646 4.3 10051178
18:00+27сз018424 2.6 1003452
21:00+22с129612 4.6 100534